RH
10 9 8 6 4 9 14 18 21 25 48 53 56 54 51 57 54 59 50 25 22 21 28 33 32 32 29 34 38 46 51 54 49 43 50 51 52 52 58 59 62 61 62 63 62 62 60 56 54
9 9 8 7 4 4 9 24 20 21 45 50 52 49 54 57 61 50 19 22 22 22 24 28 28 26 22 21 28 40 52 59 51 45 41 43 47 46 46 51 62 63 66 68 66 64 64 65 66
8 8 8 7 5 3 8 25 25 23 44 48 51 51 50 51 52 38 21 21 18 21 23 24 25 22 20 19 19 19 20 24 22 27 27 32 41 41 42 47 57 58 60 62 65 64 63 65 69
8 8 9 8 4 3 9 22 23 20 40 45 48 49 49 50 46 32 26 21 18 19 20 21 21 19 17 16 16 16 16 16 16 17 17 18 23 24 40 63 46 48 52 49 57 55 56 57 61
7 7 9 9 4 8 10 16 18 19 19 40 46 48 40 27 37 28 30 20 18 17 18 18 18 17 16 16 16 16 16 16 16 16 16 16 16 16 18 19 20 21 26 40 48 53 53 50 54
7 9 10 8 5 26 20 24 21 22 19 29 44 39 21 21 24 25 22 19 19 19 18 17 18 18 17 16 16 16 16 15 15 14 11 9 6 6 6 6 6 7 8 10 13 23 25 47 60
7 8 8 6 9 32 28 29 24 21 16 16 24 26 19 19 19 20 18 18 19 20 19 20 20 18 16 16 15 12 7 5 4 4 4 3 4 4 5 5 5 5 5 5 5 5 5 6 9
8 8 7 9 28 38 46 37 33 25 14 16 19 20 18 17 16 17 18 19 21 20 19 19 18 17 16 14 8 4 4 3 4 4 5 6 6 7 8 8 8 9 9 9 10 9 9 9 8
8 10 7 15 37 30 40 33 26 15 15 14 17 16 16 18 16 17 18 21 20 18 17 17 17 16 12 7 4 4 4 4 6 7 8 8 9 10 10 11 11 10 10 10 9 9 9 9 9
10 10 9 17 36 28 33 26 17 15 12 15 17 14 16 17 18 18 21 22 19 18 18 17 15 9 5 4 3 4 5 6 8 9 10 11 12 13 13 12 11 10 8 8 9 11 11 12 12
23 12 15 18 23 31 28 24 19 15 12 15 17 15 15 16 16 18 21 20 20 19 19 14 8 5 4 3 4 5 7 9 10 11 13 14 14 14 12 10 9 10 12 12 14 16 15 14 15
38 17 31 18 29 32 30 24 21 15 15 18 18 15 17 16 17 19 19 19 19 20 17 8 4 3 4 5 6 8 10 11 12 12 13 14 12 9 9 10 12 12 13 15 17 17 17 17 17
43 29 41 34 35 35 32 27 22 14 16 18 16 15 16 16 18 20 18 19 20 18 9 5 3 4 5 7 9 10 11 12 12 13 12 9 8 11 14 14 13 15 18 21 22 20 20 20 17
41 37 44 43 39 39 35 28 22 17 15 16 17 18 17 18 21 19 19 20 18 10 5 3 3 5 7 9 10 12 12 13 14 13 10 10 12 14 15 15 18 21 22 22 21 21 22 16 14
36 41 45 44 40 37 36 29 20 17 15 18 18 17 19 22 21 19 21 17 9 5 4 3 4 6 8 9 11 13 14 13 12 13 14 14 14 16 16 19 21 19 15 18 23 23 15 20 22
34 39 44 45 43 38 35 31 20 19 20 20 18 20 22 22 22 21 20 10 6 4 3 3 5 7 9 11 13 13 13 14 16 18 20 21 19 18 18 21 19 17 15 23 19 16 19 19 17
44 34 38 40 38 34 32 28 22 21 21 22 23 23 23 23 22 23 16 8 5 4 3 4 7 9 12 14 14 16 16 14 16 16 21 22 19 18 19 22 19 10 20 20 20 20 20 8 9
50 34 33 31 31 24 22 22 21 20 22 24 25 25 23 22 24 21 12 6 5 4 4 6 8 11 14 14 17 17 17 17 18 19 20 19 18 18 22 19 8 10 14 13 19 22 12 7 9
37 26 23 25 24 22 19 18 21 24 21 21 22 21 23 25 24 22 20 8 5 4 5 7 10 14 15 17 18 12 9 16 19 20 19 19 21 23 20 6 7 7 9 13 14 8 7 10 15
39 22 22 22 20 21 19 18 25 24 22 22 22 23 24 25 23 21 14 6 5 5 5 8 13 16 18 18 11 9 8 7 8 15 20 23 23 19 6 6 6 6 7 7 7 8 11 15 19
43 32 23 20 23 27 24 24 22 20 21 22 23 24 23 21 15 11 6 5 5 5 7 13 16 18 22 17 12 10 8 4 6 11 14 14 9 5 5 6 6 7 8 9 10 12 15 18 19
43 48 28 22 23 27 26 24 17 18 19 21 24 24 23 19 10 7 6 5 5 7 13 16 19 24 22 20 14 10 5 3 4 5 5 6 5 5 6 6 7 8 9 10 11 13 17 20 20
41 45 36 29 29 24 28 23 20 21 20 20 21 22 16 11 8 6 5 5 9 14 17 21 25 25 20 13 7 4 4 3 4 4 5 5 6 6 6 7 7 8 9 10 12 14 17 20 22
42 46 39 32 28 41 22 24 12 17 18 14 13 12 10 7 6 8 11 14 17 20 25 28 25 17 14 8 4 4 4 4 4 4 5 6 6 6 7 7 8 8 9 10 12 14 16 21 24
45 37 34 40 45 54 30 21 17 24 23 22 20 17 14 15 17 16 16 18 25 29 28 21 16 16 8 4 4 4 4 5 5 6 6 6 7 7 7 8 8 8 9 10 11 13 16 21 27
39 29 23 40 59 68 43 30 16 18 29 28 28 24 20 20 20 21 25 29 28 24 18 18 17 9 5 5 5 5 6 6 7 7 7 8 8 9 9 10 10 10 11 11 12 13 15 18 24
41 30 41 37 59 40 34 27 28 24 21 21 19 19 22 23 26 30 29 26 21 21 24 25 17 6 5 6 6 7 7 8 8 8 9 10 11 11 13 13 14 14 14 15 16 17 17 17 18
36 32 41 43 57 43 58 43 26 29 31 28 22 25 26 27 27 26 25 24 26 28 21 8 6 6 6 6 6 7 8 8 9 10 12 12 13 13 15 17 18 20 21 24 26 28 28 28 28
29 29 31 36 46 74 72 44 34 39 28 25 27 29 28 28 29 29 30 30 16 8 7 8 9 9 9 8 9 9 9 9 10 12 14 15 14 16 17 20 23 29 34 37 38 41 43 44 45
32 27 30 30 38 49 46 42 43 34 24 24 33 34 34 32 15 9 8 8 8 8 9 9 10 12 13 13 13 14 13 13 12 13 16 17 16 17 20 24 27 32 41 46 47 52 55 59 62
Wind_Speed
25 24 22 21 15 9 15 17 13 18 18 24 20 17 13 12 10 3 2 7 8 7 6 5 3 3 2 2 4 6 6 6 7 6 6 6 6 6 6 6 6 6 6 6 7 7 7 7 7
28 25 24 23 13 18 18 15 19 20 19 23 21 18 15 12 10 2 6 10 5 4 5 5 5 5 5 4 4 4 5 5 7 8 9 9 9 9 9 9 8 8 8 8 8 9 9 9 9
29 26 27 20 19 26 21 19 21 22 24 23 23 20 17 13 12 7 4 3 2 3 4 4 5 5 6 7 8 9 9 9 8 9 10 11 12 12 11 11 11 10 11 11 11 12 12 12 11
31 29 28 22 24 25 21 22 21 22 25 25 23 22 19 15 13 8 3 4 2 2 3 4 4 5 7 8 9 10 10 11 11 12 13 13 13 13 11 12 12 13 13 14 14 14 14 14 14
32 32 28 24 24 23 22 20 23 21 21 27 26 22 19 14 14 9 8 5 3 2 3 4 5 5 7 10 10 11 11 12 13 12 12 14 14 14 14 15 15 16 16 16 16 15 16 16 16
36 34 30 25 25 17 20 20 21 20 20 25 27 22 15 16 12 11 9 5 4 3 4 5 6 8 9 10 10 11 12 12 12 12 12 12 13 13 14 15 16 17 17 18 18 19 19 19 18
37 38 31 26 27 22 24 23 20 20 18 23 24 21 14 14 12 10 8 6 5 4 5 7 9 9 9 11 11 11 10 9 10 11 14 15 16 16 17 18 19 20 20 20 21 21 22 23 23
36 38 27 26 28 27 26 25 21 17 21 23 22 19 16 12 10 9 7 5 5 6 8 10 9 9 11 11 10 10 11 12 12 13 15 16 17 17 18 19 20 21 22 22 22 22 23 24 25
41 34 30 27 31 28 27 26 22 19 20 21 18 15 15 14 10 8 6 5 6 8 9 9 10 10 10 10 10 11 13 14 14 15 16 18 19 20 20 21 22 22 23 24 24 24 25 26 26
39 37 32 27 31 27 27 22 21 22 19 18 19 15 13 12 10 7 6 7 8 8 9 10 11 11 10 11 12 13 14 15 16 17 19 20 21 22 24 25 25 24 24 24 24 23 24 25 26
38 35 29 29 28 29 25 21 19 20 17 15 13 13 11 10 7 6 7 7 9 10 10 10 10 10 11 13 14 15 16 16 18 19 21 23 24 25 25 25 24 23 22 21 21 22 22 23 23
35 33 24 32 26 28 26 21 21 20 17 15 15 16 12 10 8 7 8 9 10 11 11 11 10 10 12 13 15 17 17 19 21 23 25 26 25 24 23 21 21 21 20 22 22 20 19 19 19
32 30 22 26 28 28 25 23 23 22 20 16 13 13 12 10 9 8 9 10 11 12 11 10 10 11 13 15 16 19 21 22 25 25 25 24 22 21 19 19 19 20 21 23 22 20 20 20 20
32 25 24 28 30 28 26 23 23 24 21 18 15 14 13 11 10 10 10 11 12 11 11 11 12 13 15 17 18 22 25 25 27 26 25 22 20 18 17 18 20 21 22 21 19 19 19 17 16
32 24 25 26 26 26 24 21 23 21 21 19 17 15 13 11 11 11 10 12 11 11 11 11 13 15 17 20 22 25 28 27 25 25 24 21 19 18 17 19 21 18 20 21 19 17 15 16 16
26 27 24 26 25 23 22 21 22 20 19 17 17 15 13 11 11 11 11 11 11 10 12 13 15 17 19 22 25 26 27 27 23 20 19 18 16 16 17 19 18 21 19 18 16 15 15 15 17
26 24 26 26 26 23 21 14 20 19 17 17 16 15 13 12 11 11 12 11 11 12 13 14 17 19 21 24 25 23 22 22 19 17 15 13 14 16 18 19 20 18 15 14 14 13 14 15 16
25 19 27 21 22 21 19 15 14 18 17 15 16 15 13 13 11 13 12 12 13 14 14 16 18 20 23 24 21 21 21 19 18 16 14 13 15 17 18 19 19 17 15 14 13 12 12 14 15
23 18 26 22 20 18 17 17 14 16 19 19 16 15 14 13 15 14 13 13 14 14 15 18 19 21 23 21 20 19 19 19 17 16 16 16 17 17 17 17 15 14 14 14 14 15 15 15 17
20 21 27 24 21 21 20 20 18 17 12 10 11 14 14 15 16 16 15 14 15 15 17 18 19 21 19 19 19 20 21 21 20 18 17 17 16 17 16 15 15 15 15 16 16 16 15 14 14
22 20 24 25 20 18 17 19 21 19 16 17 16 14 15 15 16 16 15 14 14 17 18 18 20 18 18 18 20 22 23 21 19 17 16 16 16 16 15 16 17 18 18 18 18 18 17 16 16
16 19 18 20 21 9 16 5 17 19 19 18 17 18 19 19 17 16 14 14 16 18 17 19 16 16 18 20 22 23 23 19 16 16 16 16 15 16 17 17 18 19 19 20 20 19 18 18 19
16 19 17 15 18 13 16 5 8 14 17 19 20 21 22 19 18 17 16 15 16 16 17 14 15 17 19 22 24 22 19 17 17 17 17 17 17 18 18 19 20 20 20 20 20 20 20 20 20
23 22 17 15 15 2 12 10 8 14 17 13 14 16 15 16 15 14 14 14 13 13 12 14 16 18 20 23 20 18 18 19 19 19 19 18 19 20 21 21 22 22 22 23 23 23 22 22 23
25 27 7 2 1 5 14 11 6 11 11 11 9 9 10 11 12 12 11 9 10 11 13 15 17 20 22 21 20 20 20 20 20 20 20 20 20 22 23 23 24 24 25 25 24 24 24 25 26
31 19 6 6 4 4 12 8 6 15 13 10 10 11 11 10 9 9 9 10 11 12 13 16 19 22 23 22 22 23 24 22 21 21 21 21 22 22 23 24 24 25 25 26 26 26 26 26 27
32 12 4 8 6 4 7 7 9 13 14 13 11 9 9 9 9 9 10 11 12 14 17 20 24 25 24 23 24 23 23 23 23 23 22 23 23 24 24 25 25 26 26 26 26 26 27 27 28
26 15 5 3 4 3 4 5 6 16 13 11 10 12 11 10 10 10 11 13 15 18 21 22 22 21 23 23 23 24 24 24 25 25 24 25 26 26 26 27 28 28 28 28 27 27 27 27 28
17 16 6 4 2 4 3 5 13 11 10 10 11 11 9 9 9 12 14 16 17 18 17 18 19 20 22 22 23 24 24 24 24 25 25 26 26 26 27 27 29 29 28 28 28 28 28 27 28
15 14 10 4 4 3 3 3 11 12 11 11 10 9 9 7 10 14 16 17 16 16 17 19 22 24 25 25 25 26 25 24 23 24 25 25 26 28 30 31 31 31 32 33 31 30 30 28 28
Wind_Direction
207 203 196 190 188 206 206 182 197 185 173 166 166 173 202 196 164 203 120 139 144 149 170 199 210 252 300 278 257 266 278 281 287 287 287 288 292 292 301 307 307 313 312 314 320 325 326 330 332
204 197 192 191 201 197 189 184 189 187 181 170 168 187 188 184 190 232 122 140 153 150 176 198 213 238 268 281 281 282 287 285 286 286 288 291 292 293 293 295 290 295 293 295 300 302 304 306 309
201 195 191 192 207 200 183 176 187 184 183 183 186 187 204 212 215 195 134 160 163 179 195 211 231 262 280 288 291 290 288 286 290 288 288 287 283 280 283 283 285 287 288 288 290 293 295 294 295
198 193 192 201 204 195 181 179 186 192 189 194 200 205 209 219 216 206 182 208 215 220 221 238 247 275 291 296 297 295 292 291 291 291 293 291 290 294 290 288 286 282 282 282 284 287 287 287 287
195 194 192 208 198 192 188 191 200 206 213 202 205 209 211 205 207 194 206 229 238 239 241 266 274 285 290 291 291 292 293 292 293 294 293 295 296 296 295 295 291 288 284 281 280 280 282 286 284
191 190 197 203 193 181 186 189 196 206 211 208 207 205 203 203 195 193 202 226 244 252 263 272 283 290 291 286 286 288 288 290 293 295 297 296 297 298 296 295 293 291 288 285 283 279 276 274 274
194 191 199 198 185 178 181 185 196 200 200 199 197 199 195 198 199 198 203 218 247 261 269 276 286 290 285 289 292 291 293 295 297 300 299 298 299 298 297 294 292 291 290 287 285 283 280 277 274
192 193 194 192 180 176 178 181 193 206 197 191 187 190 198 201 200 206 219 233 244 257 269 280 283 282 284 288 287 291 294 297 301 304 303 299 299 297 294 292 291 292 291 288 285 283 281 278 275
194 191 195 181 180 180 184 186 190 196 197 193 182 190 191 195 204 210 217 237 253 267 276 281 286 287 285 284 288 295 300 306 310 305 300 301 304 303 302 299 296 293 290 289 287 287 285 282 279
190 193 194 187 183 195 191 194 209 200 193 190 185 184 183 190 198 208 220 242 262 272 280 285 286 289 290 292 298 302 306 310 307 305 306 305 304 300 296 292 289 287 287 287 289 288 287 286 284
188 191 193 186 185 197 209 202 215 214 200 191 188 197 199 205 211 225 242 260 269 281 284 284 283 286 294 301 306 308 310 309 305 305 304 301 299 295 293 294 296 297 297 297 297 296 294 291 289
187 186 188 190 184 191 208 212 209 206 203 202 187 195 205 216 224 237 253 267 280 283 281 279 280 290 299 304 306 308 309 308 307 307 304 302 297 295 295 297 296 296 297 299 299 297 298 300 299
184 181 170 173 179 178 193 201 211 204 200 200 200 203 212 223 232 243 260 273 276 274 273 276 288 298 304 308 311 310 309 309 307 305 302 299 298 297 297 295 295 298 300 298 298 297 301 305 305
184 173 168 170 174 178 189 196 201 202 203 202 206 210 218 227 235 252 266 273 270 269 274 286 298 302 308 311 312 311 309 308 305 303 299 297 295 294 294 297 298 300 300 299 300 301 304 304 298
187 173 169 175 178 181 181 194 199 199 199 197 205 217 223 229 242 257 265 264 265 270 283 293 297 305 310 310 314 311 308 305 305 301 297 295 293 295 297 301 304 306 304 305 308 308 307 310 308
187 182 171 182 183 190 191 195 199 198 200 203 209 218 227 236 248 259 264 266 270 280 286 290 300 307 310 313 314 311 309 310 310 302 300 295 294 296 300 306 308 309 307 305 307 307 311 310 308
179 187 190 181 189 196 196 192 203 206 206 212 218 228 236 246 257 262 264 269 270 276 282 295 303 308 311 314 315 317 316 319 319 314 306 301 295 299 304 304 306 308 305 305 305 303 307 312 304
186 179 187 189 187 196 201 201 200 209 216 221 227 233 242 253 257 257 262 261 267 274 286 295 301 307 312 315 318 321 323 321 318 318 311 304 300 302 304 307 307 305 302 301 298 302 311 310 307
188 186 188 195 199 199 201 207 209 209 217 225 236 243 248 254 252 259 265 260 265 275 287 294 303 309 312 313 317 320 324 323 322 315 309 306 305 307 307 308 308 306 305 308 314 318 313 308 310
178 186 186 190 197 198 203 208 214 217 217 224 234 237 242 248 259 263 252 253 268 281 285 296 302 307 306 310 316 316 322 323 317 312 307 305 307 308 308 309 308 309 312 311 310 306 302 304 307
179 192 185 193 186 196 206 223 225 229 229 235 241 245 249 253 254 247 244 254 271 277 288 293 302 301 302 307 310 316 317 313 308 305 303 305 309 309 309 308 308 308 309 308 302 302 303 304 303
187 180 191 190 187 176 194 224 228 232 232 234 235 244 251 252 248 249 255 264 271 279 286 293 293 294 300 305 311 311 312 311 309 305 308 310 308 306 304 303 303 306 307 306 306 305 303 299 298
191 176 192 183 182 183 191 218 211 217 227 232 232 235 242 247 252 259 265 266 272 279 282 285 288 294 303 307 306 307 305 306 306 305 305 305 305 302 300 302 302 302 302 302 301 299 296 295 294
172 165 169 163 168 185 188 205 215 214 218 222 226 230 240 247 255 265 268 271 273 270 275 282 291 299 303 303 305 306 305 305 304 303 302 301 300 300 302 303 302 301 301 300 300 299 297 296 295
169 157 127 66 167 201 183 202 229 208 206 211 217 231 242 253 263 266 266 262 260 268 276 285 296 300 301 299 302 304 302 299 299 299 299 301 302 301 300 300 301 300 300 299 296 295 294 294 294
167 179 174 167 172 201 177 220 219 210 209 212 223 238 242 242 244 246 251 257 265 274 285 294 298 302 302 297 298 301 298 297 297 296 296 295 292 293 294 295 297 298 298 299 298 297 295 294 294
182 193 175 111 112 129 185 217 212 206 214 220 226 227 226 230 235 243 252 264 277 286 291 294 297 300 298 297 295 296 299 296 293 293 293 292 293 293 295 297 298 297 296 295 295 295 294 294 294
188 195 179 178 127 199 228 226 211 206 211 216 222 224 226 232 241 251 262 269 279 286 290 295 297 294 292 292 294 299 300 299 293 292 290 292 294 297 297 297 297 297 296 297 297 296 294 293 292
194 201 202 159 153 150 147 236 202 189 196 209 213 216 223 237 252 265 274 280 286 290 293 297 301 301 299 299 300 300 298 297 295 292 290 290 291 291 293 293 292 291 289 288 288 289 291 293 294
198 202 209 200 197 169 189 207 182 189 199 201 200 209 226 253 274 283 280 281 285 286 289 293 293 295 296 298 298 297 295 291 286 283 284 285 288 290 291 290 290 289 287 286 287 288 290 292 294